Hourly Data Report for October 19, 2016

All times are specified in Local Standard Time (LST). Add 1 hour to adjust for Daylight Saving Time where and when it is observed.

EUREKA CLIMATE
NUNAVUT

79°59'21.000" N
85°56'02.000" W
10.00 m
2401199
71613
NEK

Download Data

Hourly Data (October 2016)
Hourly Data Report for October 19, 2016
Temp Definition
°C
Dew Point Temp Definition
°C
Rel Hum Definition
%
Wind Dir Definition
10's deg

Wind Spd Definition
km/h
Visibility Definition
km
Stn Press Definition
kPa
Hmdx Definition


Wind Chill Definition


Weather Definition


TIME
00:00 -17.0 -18.4 89 9 5   101.42   -21 LegendNANA
01:00 -16.6 -17.9 90 12 8   101.40   -22 LegendNANA
02:00 -16.3 -17.5 90 13 10   101.40   -23 LegendNANA
03:00 -17.4 -18.7 89 12 9   101.40   -24 LegendNANA
04:00 -19.3 -20.9 87 11 9   101.41   -26 LegendNANA
05:00 -19.4 -21.0 87 12 4   101.39   -23 LegendNANA
06:00 -19.5 -21.1 87 8 7   101.40   -25 LegendNANA
07:00 -19.3 -20.8 88 9 7   101.38   -25 LegendNANA
08:00 -20.5 -22.3 85 5 5   101.38   -25 LegendNANA
09:00 -22.3 -24.2 85 4 6   101.38   -28 LegendNANA
10:00 -21.8 -23.6 86 6 4   101.35   -25 LegendNANA
11:00 -22.6 -24.5 85 11 3   101.35   -25 LegendNANA
12:00 -22.1 -24.1 84 6 5   101.33   -27 LegendNANA
13:00 -19.9 -21.6 87 8 3   101.31   -22 LegendNANA
14:00 -19.2 -20.7 88 20 1   101.31   -20 LegendNANA
15:00 -18.9 -20.4 88 29 5   101.29   -23 LegendNANA
16:00 -19.0 -20.5 88 29 11   101.27   -26 LegendNANA
17:00 -19.2 -20.8 88 29 11   101.26   -27 LegendNANA
18:00 -18.8 -20.3 88 29 12   101.23   -27 LegendNANA
19:00 -18.4 -19.9 88 29 13   101.19   -26 LegendNANA
20:00 -18.3 -19.8 88 30 11   101.16   -26 LegendNANA
21:00 -17.9 -19.3 89 29 10   101.13   -25 LegendNANA
22:00 -17.6 -19.0 89 29 12   101.13   -25 LegendNANA
23:00 -17.6 -19.0 89 29 11   101.09   -25 LegendNANA

Notes on Data Quality.

Legend

  • E = Estimated
  • M = Missing
  • NA = Not Available
  • ‡ = Partner data that is not subject to review by the National Climate Archives
Date modified: